Location: Cheching
(60.0667°N, 164.2167°W)
Time: 14:33:56
(UTC+00:00)

LilacSat-2 - Pass Details

Date: 22 January 2021
Orbit: 512 x 533 km, 97.5° (Epoch: 05 March)

Event Time Altitude Azimuth Distance (km) Brightness Sun altitude
Rises 17:14:03 0° 15° (NNE) 2,686 ? -16.2°
Reaches altitude 10° 17:16:09 10° 16° (NNE) 1,795 ? -15.9°
Maximum altitude 17:20:03 89° 293° (WNW) 542 ? -15.4°
Drops below altitude 10° 17:23:55 10° 198° (SSW) 1,789 ? -14.9°
Sets 17:26:01 0° 198° (SSW) 2,676 ? -14.7°
